Location: Siratepeler Tepesi
(39.1042°N, 32.0781°E)
Time: 00:58:37
(UTC+00:00)

IRAS Rocket - Pass Details

Date: 11 April 2026
Orbit: 845 x 876 km, 100.1° (Epoch: 11 May)

Event Time Altitude Azimuth Distance (km) Brightness Sun altitude
Exits shadow 17:48:12 - 169° (S) 2,727 6.5 -16.1°
Reaches altitude 10° 17:48:49 10° 170° (S) 2,485 6.3 -16.2°
Maximum altitude 17:54:19 75° 255° (WSW) 884 4.4 -17.2°
Drops below altitude 10° 17:59:50 10° 341° (NNW) 2,482 7.3 -18.1°
Sets 18:02:12 0° 344° (NNW) 3,419 8.0 -18.5°
